Location: Caltech
(34.1382°N, 118.1253°W)
Time: 09:58:02
(UTC-07:00)

Iridium 18 - Visible Passes

Search period start: 29 September 2016 00:00
Search period end: 09 October 2016 00:00
Orbit: 776 x 779 km, 86.4° (Epoch: 28 September)

Date Brightness Start Highest point End Pass type
(mag) Time Alt. Az. Time Alt. Az. Time Alt. Az.
29 Sep 6.4 19:53:43 10° NNE 19:57:53 27° ENE 19:57:53 27° ENE visible
29 Sep 7.4 21:34:21 10° NNW 21:38:23 27° WNW 21:38:23 27° WNW visible
30 Sep 7.1 19:21:36 10° NE 19:24:20 14° ENE 19:25:02 14° E visible
30 Sep 6.2 21:00:17 10° NNW 21:05:21 53° W 21:05:34 52° W visible
01 Oct 5.3 20:26:38 10° N 20:31:53 80° E 20:32:52 59° SSE visible
02 Oct 5.9 19:53:23 10° NNE 19:58:18 40° E 20:00:24 28° SE visible
02 Oct 8.0 21:35:07 10° NW 21:38:37 18° W 21:40:57 14° WSW visible
03 Oct 6.7 19:20:40 10° NNE 19:24:36 21° E 19:28:19 11° SE visible
03 Oct 7.0 21:00:38 10° NNW 21:05:20 35° W 21:08:53 16° SW visible
04 Oct 5.7 20:26:44 10° N 20:31:56 69° W 20:37:06 10° S visible
05 Oct 5.5 19:53:15 10° N 19:58:25 61° E 20:03:33 10° SSE visible
05 Oct 8.5 21:36:31 10° WNW 21:38:29 12° W 21:40:27 10° WSW visible
06 Oct 6.2 19:20:11 10° NNE 19:24:47 31° E 19:29:22 10° SE visible
06 Oct 7.7 21:01:11 10° NNW 21:05:17 24° W 21:09:21 10° SW visible
07 Oct 7.0 18:47:48 10° NE 18:51:02 16° ENE 18:54:14 10° ESE visible
07 Oct 6.5 20:26:59 10° NNW 20:31:56 46° W 20:36:54 10° SSW visible
08 Oct 5.5 19:53:15 10° N 19:58:30 90° WNW 20:03:43 10° S visible
